Вернуться в каталог

CZ-6A DEB

АктивенSSO
NORAD 55542·DEBRIS·🇨🇳 China

Запущен Nov 11, 2022 с Taiyuan Satellite Launch Center

Loading…

Ближайшие Пролёты (ближайшие 24 часа)

TLE

СвежийSource: Space-Track

Эпоха: Sep 14, 2026, 00:06 UTC

1 55542U 22151YQ  26257.00441244  .00001190  00000-0  53182-3 0  9996
2 55542  98.7977 279.2671 0013513 346.2948  13.7862 14.24542937193453

Отслеживайте CZ-6A DEB в реальном времени с AllMySat

Download on the App Store